Location: Castillon
(43.0896°N, 0.2156°E)
Time: 04:12:59
(UTC+00:00)

Cosmos 1980 Rocket - Pass Details

Date: 22 October 2021
Orbit: 828 x 851 km, 71.0° (Epoch: 07 December)

Event Time Altitude Azimuth Distance (km) Brightness Sun altitude
Rises 19:09:08 0° 256° (WSW) 3,392 6.5 -23.3°
Reaches altitude 10° 19:12:36 10° 278° (W) 2,466 5.7 -23.9°
Maximum altitude 19:15:59 16° 315° (NW) 2,081 4.8 -24.5°
Drops below altitude 10° 19:19:23 10° 352° (N) 2,481 4.8 -25.2°
Sets 19:22:55 0° 14° (NNE) 3,424 5.3 -25.8°
